Location: C.E.K. Mees Observatory
(42.7003°N, 77.4088°W)
Time: 11:36:29
(UTC-05:00)

N. Korean satellite - Visible Passes

Search period start: 14 November 2019 00:00
Search period end: 24 November 2019 00:00
Orbit: 456 x 506 km, 97.2° (Epoch: 13 November)

Date Brightness Start Highest point End Pass type
(mag) Time Alt. Az. Time Alt. Az. Time Alt. Az.
14 Nov 10.3 04:55:25 10° ENE 04:56:32 11° E 04:57:37 10° ESE visible
14 Nov 6.8 06:26:36 10° N 06:30:13 50° WNW 06:33:46 10° SSW visible
15 Nov 6.8 06:01:09 10° NNE 06:04:53 76° ESE 06:08:33 10° S visible
15 Nov 9.8 18:11:36 10° SW 18:14:03 17° W 18:16:32 10° NW visible
16 Nov 8.4 05:36:01 10° NNE 05:39:27 35° E 05:42:50 10° SSE visible
16 Nov 8.5 17:45:12 10° SSW 17:48:31 34° W 17:51:53 10° NNW visible
17 Nov 9.7 05:11:21 10° NE 05:13:55 18° E 05:16:28 10° SE visible
17 Nov 6.9 17:19:28 10° S 17:23:04 75° W 17:26:46 10° NNW visible
18 Nov 6.6 06:18:24 10° N 06:22:05 63° WNW 06:25:42 10° SSW visible
18 Nov 10.3 18:30:33 10° WSW 18:31:26 11° W 18:32:19 10° WNW visible
19 Nov 7.3 05:53:02 10° NNE 05:56:44 59° E 06:00:19 10° S visible
19 Nov 9.5 18:02:59 10° SW 18:05:49 21° W 18:08:43 10° NW visible
20 Nov 8.9 05:28:01 10° NE 05:31:15 28° E 05:34:25 10° SSE visible
20 Nov 8.0 17:36:50 10° S 17:40:19 43° W 17:43:52 10° NNW visible
21 Nov 10.0 05:03:38 10° ENE 05:05:41 14° E 05:07:42 10° SE visible
21 Nov 7.1 06:35:48 10° N 06:39:14 37° WNW 06:42:36 10° SW visible
21 Nov 6.6 17:11:15 10° SSE 17:14:53 85° ENE 17:18:37 10° N visible
22 Nov 6.5 06:10:13 10° N 06:13:55 81° WNW 06:17:32 10° SSW visible
22 Nov 10.0 18:21:16 10° WSW 18:23:09 14° W 18:25:04 10° WNW visible
23 Nov 7.8 05:44:56 10° NNE 05:48:30 46° E 05:51:59 10° S visible
23 Nov 9.0 17:54:26 10° SSW 17:57:34 27° W 18:00:45 10° NW visible
